Home > Weather > Krems > Past weeks

Flag for Austria Past Weather in Krems, Lower Austria, Austria — Yesterday and Last 2 Weeks

Now
82 °F

Passing clouds.


Feels Like: 84 °F
Forecast: 65 / 83 °F
Wind: 5 mph from Northwest

Location: Tulln Airport

Current Time: Jul 25, 2016 at 2:04:28 PM

Latest Report: Jul 25, 2016 at 12:50 PM


Visibility: 15 mi

Pressure: 30.01 "Hg

Humidity: 55%

Dew Point: 64 °F

Location of KremsLocation

Past Weather in Krems — Graph

°F

Krems Temperature Yesterday

Maximum temperature yesterday: 84 °F (at 3:50 PM)
Minimum temperature yesterday: 68 °F (at 5:50 AM)
Average temperature yesterday: 78 °F

High & Low Weather Summary for the Past Weeks

 TemperatureHumidityPressure
High95 °F (Jul 11, 12:50 PM)100% (Jul 13, 10:50 PM)30.21 "Hg (Jul 13, 10:50 PM)
Low54 °F (Jul 15, 5:50 AM)30% (Jul 11, 12:50 PM)29.80 "Hg (Jul 14, 6:50 AM)
Average72 °F69%30.02 "Hg
* Reported Jul 10 12:50 PM — Jul 25 12:50 PM, Krems, Weather by CustomWeather, © 2016

Note: Actual official high and low records may vary slightly from our data, if they occured in-between our weather recording intervals... More about our weather records

Advertising

Krems Weather History for the Previous 24 Hours

Scroll right to see more
 ConditionsComfort  
Time TempWeatherWind HumidityBarometerVisibility
12:50 PM
Mon, Jul 25
82 °FPassing clouds.5 mph55%30.01 "Hg16 mi
11:50 AM81 °FPassing clouds.6 mph58%30.04 "Hg12 mi
10:50 AM79 °FPassing clouds.6 mph65%30.04 "Hg9 mi
9:50 AM75 °FPassing clouds.3 mph69%30.04 "Hg9 mi
8:50 AM73 °FPartly sunny.5 mph74%30.04 "Hg9 mi
7:50 AM70 °FPassing clouds.6 mph83%30.04 "Hg9 mi
6:50 AM68 °FPartly sunny.3 mph88%30.04 "Hg12 mi
5:50 AM64 °FPassing clouds.2 mph94%30.04 "Hg11 mi
9:50 PM
Sun, Jul 24
75 °FPassing clouds.1 mph74%30.04 "Hg19 mi
8:50 PM77 °FPartly sunny.3 mph69%30.04 "Hg22 mi
7:50 PM81 °FPartly sunny.5 mph58%30.01 "Hg25 mi
6:50 PM82 °FPartly sunny.7 mph58%30.01 "Hg25 mi
5:50 PM84 °FScattered clouds.6 mph55%30.01 "Hg25 mi
4:50 PM84 °FScattered clouds.7 mph55%30.04 "Hg22 mi
3:50 PM84 °FScattered clouds.7 mph51%30.04 "Hg22 mi
2:50 PM82 °FBroken clouds.8 mph58%30.04 "Hg22 mi
Weather by CustomWeather, © 2016

See weather overviewHow to use our weather pages